Simultaneous Nadir Overpasses (SNOs) Predictions

Prediction of SNOs between NOAA-19 and TERRA Satellite Orbit:

Table of predicted SNOs for the next 14.0 days since TLE Epoch: 3/1/2014
Index Date (NOAA-19) Time (NOAA-19) Lat,Lon (NOAA-19) SZA (NOAA-19 ) Date (TERRA) Time (TERRA) Lat,Lon (TERRA) SZA (TERRA ) Distance(km) Time Diff (sec)
1 03/02/2014 22:11:17 -70.29, 28.01 102.84 03/02/2014 22:12:05 -70.29, 28.08 102.84 2.82 48
2 03/02/2014 23:02:16 70.13,-164.49 76.99 03/02/2014 23:01:33 70.13,-164.50 76.99 0.39 43
3 03/05/2014 02:55:18 -70.31, -42.99 103.67 03/05/2014 02:56:20 -70.28, -42.99 103.70 2.54 62
4 03/05/2014 03:46:17 70.18, 124.46 76.19 03/05/2014 03:45:47 70.17, 124.50 76.18 1.52 30
5 03/07/2014 07:39:21 -70.44,-114.18 104.39 03/07/2014 07:40:32 -70.38,-113.90 104.46 12.14 71
6 03/07/2014 08:30:17 70.18, 53.47 75.34 03/07/2014 08:30:00 70.21, 53.50 75.37 3.33 17
7 03/09/2014 12:23:29 -70.84, 174.16 104.84 03/09/2014 12:24:39 -70.70, 175.51 105.00 52.00 70
8 03/09/2014 13:14:17 70.21, -17.54 74.51 03/09/2014 13:14:13 70.20, -17.58 74.49 1.75 4
9 03/09/2014 14:05:04 -69.34, 151.02 106.39 03/09/2014 14:03:56 -69.38, 148.92 106.33 82.19 68
10 03/11/2014 17:07:37 -71.26, 102.46 105.27 03/11/2014 17:08:43 -71.12, 105.12 105.44 96.66 66
11 03/11/2014 17:58:17 70.24, -88.57 73.68 03/11/2014 17:58:24 70.23, -88.57 73.67 0.73 7
12 03/11/2014 18:49:11 -69.71, 79.48 106.88 03/11/2014 18:48:00 -69.80, 78.45 106.78 40.97 71
13 03/13/2014 22:42:17 70.29,-159.62 72.86 03/13/2014 22:42:34 70.27,-159.56 72.84 3.11 17




NCC Satellite Simultaneous Nadir Overpasses (SNOs) Prediction Service
